This is the latest recevied weather packets stored in our database for station/object KI7CSN-13. If no packets are shown the sender has not sent any weather packets the latest 10 day(s).
| Time | Temp. | Humidity | Pressure | Rain* | Wind** | Luminosity | Snow |
|---|---|---|---|---|---|---|---|
| 1777631872 | 13.89° C | 27% | 980.5 hPa | 0 mm | - | - | - |
| 1777631572 | 13.33° C | 29% | 980.5 hPa | 0 mm | - | - | - |
| 1777631272 | 13.33° C | 28% | 980.6 hPa | 0 mm | - | - | - |
| 1777630972 | 12.78° C | 29% | 980.5 hPa | 0 mm | - | - | - |
| 1777630672 | 13.33° C | 28% | 980.5 hPa | 0 mm | - | - | - |
| 1777630372 | 13.33° C | 28% | 980.6 hPa | 0 mm | - | - | - |
| 1777630072 | 13.89° C | 27% | 980.5 hPa | 0 mm | - | - | - |
| 1777629772 | 14.44° C | 27% | 980.5 hPa | 0 mm | - | - | - |
| 1777629472 | 15° C | 27% | 980.4 hPa | 0 mm | - | - | - |
| 1777629172 | 15.56° C | 26% | 980.3 hPa | 0 mm | - | - | - |
| 1777628872 | 16.11° C | 26% | 980.3 hPa | 0 mm | - | - | - |
| 1777628572 | 16.11° C | 25% | 980.2 hPa | 0 mm | - | - | - |
| 1777628273 | 16.67° C | 25% | 980.2 hPa | 0 mm | - | - | - |
| 1777627973 | 16.67° C | 25% | 980.2 hPa | 0 mm | - | - | - |
| 1777627672 | 16.11° C | 25% | 980.2 hPa | 0 mm | - | - | - |
| 1777627373 | 16.11° C | 25% | 980 hPa | 0 mm | - | - | - |
| 1777627073 | 16.67° C | 25% | 980.2 hPa | 0 mm | - | - | - |
| 1777626773 | 16.67° C | 25% | 980.2 hPa | 0 mm | - | - | - |
| 1777626473 | 16.67° C | 25% | 980.2 hPa | 0 mm | - | - | - |
| 1777626173 | 16.67° C | 24% | 980 hPa | 0 mm | - | - | - |
| 1777625873 | 17.22° C | 24% | 980.2 hPa | 0 mm | - | - | - |
| 1777625573 | 16.67° C | 24% | 980.2 hPa | 0 mm | - | - | - |
| 1777625273 | 17.22° C | 23% | 980.2 hPa | 0 mm | - | - | - |
| 1777624973 | 16.67° C | 24% | 980.3 hPa | 0 mm | - | - | - |
| 1777624673 | 17.22° C | 24% | 980.3 hPa | 0 mm | - | - | - |
* Rain latest hour (hover to see other rain measurements)
** Current wind speed in m/s (hover to see current wind gust speed)